Pian Rosa, Italy

4:35 AM CEST on October 17, 2017 (GMT +0200)
Pian Rosa

Weather History for LIMH - February, 2014

Change the Weather History Date:

Thursday, February 6, 2014

  Actual Average Record
Temperature  
Mean Temperature 12 °F -  
Max Temperature 21 °F 17 °F 35 °F (2004)
Min Temperature 3 °F 6 °F -7 °F (2012)
Degree Days  
Heating Degree Days 53    
Moisture  
Dew Point 3 °F    
Average Humidity 59    
Maximum Humidity 100    
Minimum Humidity 15    
Precipitation  
Precipitation 0.00 in - - ()
Sea Level Pressure  
Sea Level Pressure 29.75 in    
Wind  
Wind Speed 14 mph ()    
Max Wind Speed 34 mph    
Max Gust Speed 54 mph    
Visibility 5.3 miles    
Events Fog    
Averages and records for this station are not official NWS values.
T = Trace of Precipitation, MM = Missing Value Source: Averaged Metar Reports

Daily Weather History Graph

Daily Weather History Graph

Search for Another Location

Airport or City:

Trip Planner

Search our weather history database for the weather conditions in past years. The results will help you decide how hot, cold, wet, or windy it might be!

Date:

Astronomy

Feb. 06, 2014 Rise Set
Actual Time 7:45 AM CET 5:41 PM CET
Civil Twilight 7:13 AM CET 6:13 PM CET
Nautical Twilight 6:38 AM CET 6:48 PM CET
Astronomical Twilight 6:03 AM CET 7:23 PM CET
Moon 11:03 AM CET (2/6) 12:43 AM CET (2/6)
Length of Visible Light 10h 59m
Length of Day
9h 56m
Waxing Crescent, 46% of the Moon is Illuminated
Feb 6
Waxing Crescent
Feb 6
First Quarter
Feb 15
Full
Feb 22
Last Quarter
Mar 1
New

Hourly Weather History & Observations

Time (CET) Temp. Windchill Dew Point Humidity Pressure Visibility Wind Dir Wind Speed Gust Speed Precip Events Conditions
12:00 AM 5 °F - 3 °F 87%  in 6 mi ENE 24.2 mph - - Fog Light Fog
12:55 AM 5.0 °F -15.7 °F 1.4 °F 85% 29.56 in - ENE 20.7 mph - N/A   Clear
1:00 AM 4 °F - 2 °F 89%  in 6 mi ENE 20.7 mph - -   Partly Cloudy
1:55 AM 5.0 °F -16.7 °F 1.4 °F 85% 29.59 in - ENE 23.0 mph - N/A   Clear
2:00 AM 4 °F - 2 °F 89%  in 6 mi ENE 23.0 mph - -   Partly Cloudy
2:55 AM 5.0 °F -14.7 °F -2.2 °F 72% 29.62 in - NE 18.4 mph - N/A   Clear
3:00 AM 5 °F - -3 °F 58%  in 6 mi NE 18.4 mph - -   Partly Cloudy
3:55 AM 6.8 °F -11.3 °F -5.8 °F 56% 29.65 in - NE 16.1 mph - N/A   Clear
4:00 AM 6 °F - -7 °F 40%  in 6 mi NE 16.1 mph - -  
4:55 AM 6.8 °F -7.8 °F -7.6 °F 52% 29.65 in - ENE 10.4 mph - N/A   Clear
5:00 AM 8 °F - -8 °F 33%  in 6 mi ENE 10.4 mph - -  
5:55 AM 8.6 °F -1.3 °F -9.4 °F 44% 29.71 in - NNW 5.8 mph - N/A   Clear
6:00 AM 9 °F - -10 °F 26%  in 6 mi NNW 5.8 mph - -  
6:55 AM 8.6 °F 2.0 °F -9.4 °F 44% 29.71 in - Variable 3.5 mph - N/A   Clear
7:00 AM 9 °F - -10 °F 25%  in 6 mi 3.5 mph - -  
7:55 AM 10.4 °F 4.0 °F -11.2 °F 37% 29.71 in - Variable 3.5 mph - N/A   Clear
8:00 AM 10 °F - -11 °F 21%  in 19 mi 3.5 mph - -  
8:55 AM 10.4 °F 4.0 °F -14.8 °F 31% 29.74 in - Variable 3.5 mph - N/A   Clear
9:00 AM 11 °F - -15 °F 15%  in 31 mi 3.5 mph - -   Scattered Clouds
9:55 AM 12.2 °F -1.8 °F -13.0 °F 32% 29.74 in - SW 11.5 mph - N/A   Clear
10:00 AM 13 °F - -12 °F 16%  in 31 mi SW 11.5 mph - -   Clear
10:55 AM 14.0 °F 2.9 °F -11.2 °F 32% 29.80 in - SSW 8.1 mph - N/A   Clear
11:00 AM 14 °F - -10 °F 18%  in 31 mi SSW 8.1 mph - -   Clear
11:55 AM 17.6 °F 12.3 °F 1.4 °F 49% 29.80 in - Variable 3.5 mph - N/A   Clear
12:00 PM 18 °F - 1 °F 32%  in 31 mi 3.5 mph - -   Clear
12:55 PM 17.6 °F 7.3 °F 3.2 °F 53% 29.83 in - West 8.1 mph - N/A   Clear
1:00 PM 18 °F - 3 °F 36%  in 31 mi West 8.1 mph - -   Clear
1:55 PM 19.4 °F 14.3 °F 6.8 °F 58% 29.80 in 6.2 mi Variable 3.5 mph - N/A   Partly Cloudy
2:00 PM 19 °F - 6 °F 42%  in 31 mi 3.5 mph - -   Partly Cloudy
2:55 PM 19.4 °F 7.2 °F 5.0 °F 54% 29.80 in 6.2 mi SW 11.5 mph - N/A   Scattered Clouds
3:00 PM 19 °F - 6 °F 41%  in 31 mi SW 11.5 mph - -   Partly Cloudy
3:55 PM 17.6 °F 5.7 °F 6.8 °F 63% 29.83 in 6.2 mi SW 10.4 mph - N/A   Scattered Clouds
4:00 PM 18 °F - 7 °F 49%  in 31 mi SW 10.4 mph - -   Partly Cloudy
4:55 PM 19.4 °F 7.2 °F 8.6 °F 63% 29.83 in 6.2 mi SW 11.5 mph 25.3 mph N/A   Scattered Clouds
5:00 PM 19 °F - 9 °F 51%  in 31 mi SW 11.5 mph - -   Partly Cloudy
5:55 PM 17.6 °F 3.7 °F 14.0 °F 86% 29.83 in 6.2 mi SW 13.8 mph - N/A   Partly Cloudy
6:00 PM 18 °F - 13 °F 74%  in 31 mi SW 13.8 mph - -   Scattered Clouds
6:55 PM 17.6 °F 2.2 °F 17.6 °F 100% 29.83 in 0.5 mi SW 17.3 mph 31.1 mph N/A Fog Light Freezing Fog
7:00 PM 18 °F - 18 °F 98%  in 0 mi SW 17.3 mph - - Fog Heavy Fog
7:55 PM 19.4 °F 2.5 °F 19.4 °F 100% 29.83 in 0.5 mi SW 23.0 mph 40.3 mph N/A Fog Light Freezing Fog
8:00 PM 19 °F - 19 °F 100%  in 0 mi SW 23.0 mph - - Fog Heavy Fog
8:55 PM 19.4 °F -0.6 °F 19.4 °F 100% 29.80 in 1.9 mi SSW 34.5 mph 54.1 mph N/A   Scattered Clouds
9:00 PM 20 °F - 18 °F 91%  in 2 mi SSW 34.5 mph - - Fog Light Fog
9:55 PM 21.2 °F 2.4 °F 17.6 °F 86% 29.80 in 6.2 mi SSW 32.2 mph 44.9 mph N/A   Mostly Cloudy
10:00 PM 20 °F - 17 °F 85%  in 6 mi SSW 32.2 mph - -   Partly Cloudy
10:55 PM 21.2 °F 2.7 °F 15.8 °F 80% 29.80 in 6.2 mi SSW 31.1 mph 42.6 mph N/A   Scattered Clouds
11:00 PM 20 °F - 16 °F 77%  in 6 mi SSW 31.1 mph - -   Partly Cloudy
11:55 PM 19.4 °F 1.8 °F 14.0 °F 80% 29.77 in 6.2 mi SSW 25.3 mph - N/A   Partly Cloudy